STARLINK-34706

Last updated on Tue Aug 19 2025 00:02:05 GMT+0000 (Coordinated Universal Time)

1 64845U 25152D 25230.56755277 -.00168525 00000+0 -33698-2 0 9997 2 64845 97.6044 84.2031 0003497 148.7366 211.4092 15.47361344 4781

Satellite not in orbit